Time,TemperatureF,DewpointF,PressureIn,WindDirection,WindDirectionDegrees,WindSpeedMPH,WindSpeedGustMPH,Humidity,HourlyPrecipIn,Conditions,Clouds,dailyrainin,SoftwareType,DateUTC
2013-07-04 00:00:00,75.0,72.1,30.14,NE,45,9.0,-999.0,91,-99.99,,,0.00,meteohub,2013-07-04 04:00:00,
2013-07-04 00:01:00,75.0,72.1,30.14,NE,45,7.0,-999.0,91,-99.99,,,0.00,meteohub,2013-07-04 04:01:00,
2013-07-04 00:02:00,75.0,72.1,30.14,NE,45,12.0,-999.0,91,-99.99,,,0.00,meteohub,2013-07-04 04:02:00,
2013-07-04 00:03:00,75.0,72.1,30.14,SE,135,6.0,-999.0,91,-99.99,,,0.00,meteohub,2013-07-04 04:03:00,
2013-07-04 00:04:00,75.0,72.1,30.14,NE,45,7.0,-999.0,91,-99.99,,,0.00,meteohub,2013-07-04 04:04:00,
2013-07-04 00:06:00,75.0,72.1,30.14,SE,135,9.0,-999.0,91,-99.99,,,0.00,meteohub,2013-07-04 04:06:00,
2013-07-04 00:11:00,75.0,72.1,30.14,NE,45,9.0,-999.0,91,-99.99,,,0.00,meteohub,2013-07-04 04:11:00,
2013-07-04 00:16:00,75.0,72.1,30.14,NE,45,8.0,-999.0,91,-99.99,,,0.00,meteohub,2013-07-04 04:16:00,
2013-07-04 00:21:00,73.9,73.0,30.14,SE,135,6.0,-999.0,97,-99.99,,,0.00,meteohub,2013-07-04 04:21:00,
2013-07-04 00:26:00,75.0,72.1,30.14,SE,135,10.0,-999.0,91,-99.99,,,0.00,meteohub,2013-07-04 04:26:00,
2013-07-04 00:31:00,75.0,72.1,30.14,NE,45,6.0,-999.0,91,-99.99,,,0.00,meteohub,2013-07-04 04:31:00,
2013-07-04 00:36:00,75.0,72.1,30.14,NE,45,9.0,-999.0,91,-99.99,,,0.00,meteohub,2013-07-04 04:36:00,
2013-07-04 00:41:00,73.9,73.0,30.14,SE,135,10.0,-999.0,97,-99.99,,,0.00,meteohub,2013-07-04 04:41:00,
2013-07-04 00:46:00,75.0,72.1,30.14,NE,45,7.0,-999.0,91,-99.99,,,0.00,meteohub,2013-07-04 04:46:00,
2013-07-04 00:52:00,75.0,72.1,30.14,NE,45,6.0,-999.0,91,-99.99,,,0.00,meteohub,2013-07-04 04:52:00,
2013-07-04 00:57:00,75.0,72.1,30.13,NE,45,3.0,-999.0,91,-99.99,,,0.00,meteohub,2013-07-04 04:57:00,
2013-07-04 01:02:00,75.0,72.1,30.13,NE,45,4.0,-999.0,91,-99.99,,,0.00,meteohub,2013-07-04 05:02:00,
2013-07-04 01:07:00,75.0,72.1,30.12,NE,45,6.0,-999.0,91,-99.99,,,0.00,meteohub,2013-07-04 05:07:00,
2013-07-04 01:12:00,75.0,72.1,30.12,NE,45,4.0,-999.0,91,-99.99,,,0.00,meteohub,2013-07-04 05:12:00,
2013-07-04 01:17:00,73.9,73.0,30.12,NE,45,7.0,-999.0,97,-99.99,,,0.00,meteohub,2013-07-04 05:17:00,
2013-07-04 01:22:00,75.0,72.1,30.12,NE,45,6.0,-999.0,91,-99.99,,,0.00,meteohub,2013-07-04 05:22:00,
2013-07-04 01:27:00,75.0,72.1,30.12,NE,45,6.0,-999.0,91,-99.99,,,0.00,meteohub,2013-07-04 05:27:00,
2013-07-04 01:32:00,75.0,72.1,30.12,NE,45,5.0,-999.0,91,-99.99,,,0.00,meteohub,2013-07-04 05:32:00,
2013-07-04 01:37:00,75.0,72.1,30.12,NE,45,5.0,-999.0,91,-99.99,,,0.00,meteohub,2013-07-04 05:37:00,
2013-07-04 01:42:00,75.0,72.1,30.12,NE,45,4.0,-999.0,91,-99.99,,,0.00,meteohub,2013-07-04 05:42:00,
2013-07-04 01:47:00,75.0,72.1,30.12,NE,45,7.0,-999.0,91,-99.99,,,0.00,meteohub,2013-07-04 05:47:00,
2013-07-04 01:52:00,73.9,73.0,30.12,SE,135,6.0,-999.0,97,-99.99,,,0.00,meteohub,2013-07-04 05:52:00,
2013-07-04 01:57:00,75.0,72.1,30.12,NE,45,6.0,-999.0,91,-99.99,,,0.00,meteohub,2013-07-04 05:57:00,
2013-07-04 02:02:00,75.0,72.1,30.12,NE,45,6.0,-999.0,91,-99.99,,,0.00,meteohub,2013-07-04 06:02:00,
2013-07-04 02:07:00,73.9,71.1,30.12,NE,45,5.0,-999.0,91,-99.99,,,0.00,meteohub,2013-07-04 06:07:00,
2013-07-04 02:12:00,73.9,71.1,30.12,NE,45,5.0,-999.0,91,-99.99,,,0.00,meteohub,2013-07-04 06:12:00,
2013-07-04 02:17:00,73.9,71.1,30.11,NE,45,6.0,-999.0,91,-99.99,,,0.00,meteohub,2013-07-04 06:17:00,
2013-07-04 02:22:00,73.9,71.1,30.11,NE,45,6.0,-999.0,91,-99.99,,,0.00,meteohub,2013-07-04 06:22:00,
2013-07-04 02:27:00,73.9,73.4,30.11,NE,45,5.0,-999.0,98,-99.99,,,0.00,meteohub,2013-07-04 06:27:00,
2013-07-04 02:32:00,73.9,71.1,30.11,NE,45,5.0,-999.0,91,-99.99,,,0.00,meteohub,2013-07-04 06:32:00,
2013-07-04 02:37:00,73.9,71.1,30.09,NE,45,6.0,-999.0,91,-99.99,,,0.00,meteohub,2013-07-04 06:37:00,
2013-07-04 02:42:00,73.9,71.4,30.09,NE,45,4.0,-999.0,92,-99.99,,,0.00,meteohub,2013-07-04 06:42:00,
2013-07-04 02:47:00,73.9,71.1,30.09,SE,135,5.0,-999.0,91,-99.99,,,0.00,meteohub,2013-07-04 06:47:00,
2013-07-04 02:52:00,73.9,71.4,30.09,NE,45,6.0,-999.0,92,-99.99,,,0.00,meteohub,2013-07-04 06:52:00,
2013-07-04 02:57:00,73.9,71.4,30.09,NE,45,6.0,-999.0,92,-99.99,,,0.00,meteohub,2013-07-04 06:57:00,
2013-07-04 03:02:00,73.0,72.5,30.09,NE,45,5.0,-999.0,98,-99.99,,,0.00,meteohub,2013-07-04 07:02:00,
2013-07-04 03:07:00,73.9,71.4,30.09,NE,45,6.0,-999.0,92,-99.99,,,0.00,meteohub,2013-07-04 07:07:00,
2013-07-04 03:12:00,73.9,71.4,30.09,NE,45,7.0,-999.0,92,-99.99,,,0.00,meteohub,2013-07-04 07:12:00,
2013-07-04 03:17:00,73.9,71.4,30.09,SE,135,4.0,-999.0,92,-99.99,,,0.00,meteohub,2013-07-04 07:17:00,
2013-07-04 03:22:00,73.9,71.4,30.09,NE,45,6.0,-999.0,92,-99.99,,,0.00,meteohub,2013-07-04 07:22:00,
2013-07-04 03:27:00,73.9,71.4,30.09,NE,45,7.0,-999.0,92,-99.99,,,0.00,meteohub,2013-07-04 07:27:00,
2013-07-04 03:32:00,73.9,71.4,30.09,SE,135,6.0,-999.0,92,-99.99,,,0.00,meteohub,2013-07-04 07:32:00,
2013-07-04 03:37:00,73.0,72.7,30.09,NE,45,6.0,-999.0,99,-99.99,,,0.00,meteohub,2013-07-04 07:37:00,
2013-07-04 03:42:00,73.9,71.4,30.09,NE,45,3.0,-999.0,92,-99.99,,,0.00,meteohub,2013-07-04 07:42:00,
2013-07-04 03:47:00,73.9,71.4,30.09,NE,45,3.0,-999.0,92,-99.99,,,0.00,meteohub,2013-07-04 07:47:00,
2013-07-04 03:52:00,73.9,71.8,30.08,NE,45,4.0,-999.0,93,-99.99,,,0.00,meteohub,2013-07-04 07:52:00,
2013-07-04 03:57:00,73.9,71.4,30.08,SE,135,3.0,-999.0,92,-99.99,,,0.00,meteohub,2013-07-04 07:57:00,
2013-07-04 04:02:00,73.9,71.4,30.08,NE,45,7.0,-999.0,92,-99.99,,,0.00,meteohub,2013-07-04 08:02:00,
2013-07-04 04:07:00,73.9,71.8,30.08,NE,45,1.0,-999.0,93,-99.99,,,0.00,meteohub,2013-07-04 08:07:00,
2013-07-04 04:12:00,73.0,72.7,30.08,NE,45,6.0,-999.0,99,-99.99,,,0.00,meteohub,2013-07-04 08:12:00,
2013-07-04 04:17:00,73.9,71.4,30.08,NE,45,4.0,-999.0,92,-99.99,,,0.00,meteohub,2013-07-04 08:17:00,
2013-07-04 04:22:00,73.9,71.8,30.08,NE,45,6.0,-999.0,93,-99.99,,,0.00,meteohub,2013-07-04 08:22:00,
2013-07-04 04:27:00,73.9,72.1,30.08,NE,45,6.0,-999.0,94,-99.99,,,0.00,meteohub,2013-07-04 08:27:00,
2013-07-04 04:32:00,73.9,71.4,30.08,NE,45,8.0,-999.0,92,-99.99,,,0.00,meteohub,2013-07-04 08:32:00,
2013-07-04 04:37:00,73.9,71.8,30.08,NE,45,5.0,-999.0,93,-99.99,,,0.00,meteohub,2013-07-04 08:37:00,
2013-07-04 04:42:00,73.9,71.8,30.08,NE,45,6.0,-999.0,93,-99.99,,,0.00,meteohub,2013-07-04 08:42:00,
2013-07-04 04:47:00,73.0,73.0,30.08,NE,45,6.0,-999.0,100,-99.99,,,0.00,meteohub,2013-07-04 08:47:00,
2013-07-04 04:52:00,73.9,71.8,30.08,NE,45,5.0,-999.0,93,-99.99,,,0.00,meteohub,2013-07-04 08:52:00,
2013-07-04 04:57:00,73.9,71.8,30.09,SE,135,5.0,-999.0,93,-99.99,,,0.00,meteohub,2013-07-04 08:57:00,
2013-07-04 05:02:00,73.9,72.1,30.09,NE,45,5.0,-999.0,94,-99.99,,,0.00,meteohub,2013-07-04 09:02:00,
2013-07-04 05:07:00,73.9,71.8,30.09,SE,135,5.0,-999.0,93,-99.99,,,0.00,meteohub,2013-07-04 09:07:00,
2013-07-04 05:12:00,73.9,71.8,30.09,NE,45,6.0,-999.0,93,-99.99,,,0.00,meteohub,2013-07-04 09:12:00,
2013-07-04 05:17:00,73.9,72.1,30.09,NE,45,3.0,-999.0,94,-99.99,,,0.00,meteohub,2013-07-04 09:17:00,
2013-07-04 05:22:00,73.0,73.0,30.09,NE,45,7.0,-999.0,100,-99.99,,,0.00,meteohub,2013-07-04 09:22:00,
2013-07-04 05:27:00,73.9,71.8,30.09,SE,135,4.0,-999.0,93,-99.99,,,0.00,meteohub,2013-07-04 09:27:00,
2013-07-04 05:32:00,73.9,71.8,30.09,NE,45,5.0,-999.0,93,-99.99,,,0.00,meteohub,2013-07-04 09:32:00,
2013-07-04 05:37:00,73.9,72.1,30.09,NE,45,9.0,-999.0,94,-99.99,,,0.00,meteohub,2013-07-04 09:37:00,
2013-07-04 05:42:00,73.9,71.4,30.09,NE,45,8.0,-999.0,92,-99.99,,,0.00,meteohub,2013-07-04 09:42:00,
2013-07-04 05:47:00,73.9,71.8,30.09,NE,45,6.0,-999.0,93,-99.99,,,0.00,meteohub,2013-07-04 09:47:00,
2013-07-04 05:52:00,73.9,71.8,30.09,NE,45,7.0,-999.0,93,-99.99,,,0.00,meteohub,2013-07-04 09:52:00,
2013-07-04 05:57:00,73.0,73.0,30.09,NE,45,6.0,-999.0,100,-99.99,,,0.00,meteohub,2013-07-04 09:57:00,
2013-07-04 06:02:00,73.9,71.4,30.09,NE,45,8.0,-999.0,92,-99.99,,,0.00,meteohub,2013-07-04 10:02:00,
2013-07-04 06:07:00,73.9,71.4,30.09,NE,45,6.0,-999.0,92,-99.99,,,0.00,meteohub,2013-07-04 10:07:00,
2013-07-04 06:12:00,73.9,72.1,30.09,NE,45,7.0,-999.0,94,-99.99,,,0.00,meteohub,2013-07-04 10:12:00,
2013-07-04 06:17:00,73.9,71.4,30.09,NE,45,6.0,-999.0,92,-99.99,,,0.00,meteohub,2013-07-04 10:17:00,
2013-07-04 06:22:00,73.9,71.4,30.09,NE,45,7.0,-999.0,92,-99.99,,,0.00,meteohub,2013-07-04 10:22:00,
2013-07-04 06:27:00,73.9,71.4,30.09,SE,135,6.0,-999.0,92,-99.99,,,0.00,meteohub,2013-07-04 10:27:00,
2013-07-04 06:32:00,73.0,73.0,30.09,NE,45,6.0,-999.0,100,-99.99,,,0.00,meteohub,2013-07-04 10:32:00,
2013-07-04 06:37:00,73.9,71.4,30.09,NE,45,9.0,-999.0,92,-99.99,,,-99.99,meteohub,2013-07-04 10:37:00,
2013-07-04 06:42:00,73.9,71.4,30.09,NE,45,5.0,-999.0,92,-99.99,,,-99.99,meteohub,2013-07-04 10:42:00,
2013-07-04 06:47:00,73.9,71.8,30.09,NE,45,5.0,-999.0,93,-99.99,,,-99.99,meteohub,2013-07-04 10:47:00,
2013-07-04 06:52:00,73.9,71.4,30.09,NE,45,9.0,-999.0,92,-99.99,,,-99.99,meteohub,2013-07-04 10:52:00,
2013-07-04 06:57:00,73.9,71.4,30.09,NE,45,6.0,-999.0,92,-99.99,,,-99.99,meteohub,2013-07-04 10:57:00,
2013-07-04 07:02:00,73.9,71.4,30.09,NE,45,3.0,-999.0,92,-99.99,,,-99.99,meteohub,2013-07-04 11:02:00,
2013-07-04 07:07:00,73.0,72.7,30.09,NE,45,9.0,-999.0,99,-99.99,,,-99.99,meteohub,2013-07-04 11:07:00,
2013-07-04 07:12:00,73.9,71.1,30.09,NE,45,6.0,-999.0,91,-99.99,,,-99.99,meteohub,2013-07-04 11:12:00,
2013-07-04 07:17:00,75.0,72.5,30.09,NE,45,5.0,-999.0,92,-99.99,,,-99.99,meteohub,2013-07-04 11:17:00,
2013-07-04 07:22:00,75.0,72.5,30.11,NE,45,7.0,-999.0,92,-99.99,,,-99.99,meteohub,2013-07-04 11:22:00,
2013-07-04 07:27:00,75.0,72.1,30.11,NE,45,10.0,-999.0,91,-99.99,,,-99.99,meteohub,2013-07-04 11:27:00,
2013-07-04 07:32:00,75.0,72.1,30.11,NE,45,7.0,-999.0,91,-99.99,,,-99.99,meteohub,2013-07-04 11:32:00,
2013-07-04 07:37:00,75.0,72.1,30.11,NE,45,4.0,-999.0,91,-99.99,,,-99.99,meteohub,2013-07-04 11:37:00,
2013-07-04 07:42:00,75.0,74.5,30.12,NE,45,6.0,-999.0,98,-99.99,,,-99.99,meteohub,2013-07-04 11:42:00,
2013-07-04 07:47:00,75.9,72.9,30.12,NE,45,7.0,-999.0,90,-99.99,,,-99.99,meteohub,2013-07-04 11:47:00,
2013-07-04 07:52:00,75.9,72.9,30.12,NE,45,3.0,-999.0,90,-99.99,,,-99.99,meteohub,2013-07-04 11:52:00,
2013-07-04 07:57:00,75.9,72.9,30.12,NE,45,7.0,-999.0,90,-99.99,,,-99.99,meteohub,2013-07-04 11:57:00,
2013-07-04 08:02:00,77.0,73.2,30.12,NE,45,6.0,-999.0,88,-99.99,,,-99.99,meteohub,2013-07-04 12:02:00,
2013-07-04 08:07:00,77.0,73.2,30.13,NE,45,4.0,-999.0,88,-99.99,,,-99.99,meteohub,2013-07-04 12:07:00,
2013-07-04 08:12:00,77.0,72.9,30.13,NE,45,6.0,-999.0,87,-99.99,,,-99.99,meteohub,2013-07-04 12:12:00,
2013-07-04 08:17:00,77.0,74.8,30.13,NE,45,9.0,-999.0,93,-99.99,,,-99.99,meteohub,2013-07-04 12:17:00,
2013-07-04 08:22:00,78.1,73.2,30.13,SE,135,6.0,-999.0,85,-99.99,,,-99.99,meteohub,2013-07-04 12:22:00,
2013-07-04 08:27:00,78.1,73.2,30.14,NE,45,10.0,-999.0,85,-99.99,,,-99.99,meteohub,2013-07-04 12:27:00,
2013-07-04 08:32:00,78.1,73.2,30.14,NE,45,10.0,-999.0,85,-99.99,,,-99.99,meteohub,2013-07-04 12:32:00,
2013-07-04 08:37:00,78.1,72.9,30.14,NE,45,8.0,-999.0,84,-99.99,,,-99.99,meteohub,2013-07-04 12:37:00,
2013-07-04 08:42:00,79.0,73.4,30.14,NE,45,12.0,-999.0,83,-99.99,,,-99.99,meteohub,2013-07-04 12:42:00,
2013-07-04 08:47:00,79.0,74.1,30.14,NE,45,13.0,-999.0,85,-99.99,,,-99.99,meteohub,2013-07-04 12:47:00,
2013-07-04 08:52:00,79.0,75.7,30.14,SE,135,10.0,-999.0,90,-99.99,,,-99.99,meteohub,2013-07-04 12:52:00,
2013-07-04 08:57:00,80.1,73.8,30.14,SE,135,10.0,-999.0,81,-99.99,,,-99.99,meteohub,2013-07-04 12:57:00,
2013-07-04 09:02:00,80.1,73.8,30.14,NE,45,15.0,-999.0,81,-99.99,,,-99.99,meteohub,2013-07-04 13:02:00,
2013-07-04 09:07:00,80.1,73.8,30.14,SE,135,10.0,-999.0,81,-99.99,,,-99.99,meteohub,2013-07-04 13:07:00,
2013-07-04 09:12:00,81.0,74.1,30.14,SE,135,11.0,-999.0,80,-99.99,,,0.00,meteohub,2013-07-04 13:12:00,
2013-07-04 09:17:00,81.0,73.8,30.14,SE,135,13.0,-999.0,79,-99.99,,,0.01,meteohub,2013-07-04 13:17:00,
2013-07-04 09:22:00,81.0,73.8,30.14,SE,135,15.0,-999.0,79,-99.99,,,0.01,meteohub,2013-07-04 13:22:00,
2013-07-04 09:27:00,81.0,76.1,30.14,SE,135,13.0,-999.0,85,-99.99,,,-99.99,meteohub,2013-07-04 13:27:00,
2013-07-04 09:32:00,82.0,74.1,30.14,SE,135,14.0,-999.0,77,-99.99,,,-99.99,meteohub,2013-07-04 13:32:00,
2013-07-04 09:37:00,82.0,73.8,30.14,SE,135,9.0,-999.0,76,-99.99,,,-99.99,meteohub,2013-07-04 13:37:00,
2013-07-04 09:42:00,82.0,73.8,30.14,SE,135,13.0,-999.0,76,-99.99,,,-99.99,meteohub,2013-07-04 13:42:00,
2013-07-04 09:48:00,82.0,75.6,30.14,SE,135,10.0,-999.0,81,-99.99,,,0.01,meteohub,2013-07-04 13:48:00,
2013-07-04 09:53:00,82.0,73.4,30.14,SE,135,12.0,-999.0,75,-99.99,,,0.01,meteohub,2013-07-04 13:53:00,
2013-07-04 09:58:00,82.0,72.9,30.14,SE,135,8.0,-999.0,74,-99.99,,,0.01,meteohub,2013-07-04 13:58:00,
2013-07-04 10:03:00,82.0,73.8,30.14,SE,135,12.0,-999.0,76,-99.99,,,0.01,meteohub,2013-07-04 14:03:00,
2013-07-04 10:08:00,82.0,73.4,30.14,SE,135,16.0,-999.0,75,-99.99,,,-99.99,meteohub,2013-07-04 14:08:00,
2013-07-04 10:13:00,82.9,74.7,30.14,SE,135,10.0,-999.0,76,-99.99,,,-99.99,meteohub,2013-07-04 14:13:00,
2013-07-04 10:18:00,82.0,72.5,30.14,SE,135,9.0,-999.0,73,-99.99,,,-99.99,meteohub,2013-07-04 14:18:00,
2013-07-04 10:23:00,82.9,74.1,30.14,SE,135,16.0,-999.0,75,-99.99,,,0.01,meteohub,2013-07-04 14:23:00,
2013-07-04 10:28:00,82.0,73.8,30.14,SE,135,11.0,-999.0,76,-99.99,,,-99.99,meteohub,2013-07-04 14:28:00,
2013-07-04 10:33:00,82.0,73.8,30.14,SE,135,16.0,-999.0,76,-99.99,,,-99.99,meteohub,2013-07-04 14:33:00,
2013-07-04 10:38:00,82.0,73.8,30.14,SE,135,15.0,-999.0,76,0.00,,,-99.99,meteohub,2013-07-04 14:38:00,
2013-07-04 10:44:00,82.0,75.2,30.14,SE,135,12.0,-999.0,80,-99.99,,,-99.99,meteohub,2013-07-04 14:44:00,
2013-07-04 10:49:00,82.9,73.8,30.14,SE,135,10.0,-999.0,74,-99.99,,,-99.99,meteohub,2013-07-04 14:49:00,
2013-07-04 10:54:00,82.9,74.1,30.14,SE,135,12.0,-999.0,75,-99.99,,,-99.99,meteohub,2013-07-04 14:54:00,
2013-07-04 10:59:00,82.9,73.8,30.14,SE,135,15.0,-999.0,74,-99.99,,,-99.99,meteohub,2013-07-04 14:59:00,
2013-07-04 11:04:00,82.9,73.8,30.14,SE,135,10.0,-999.0,74,-99.99,,,-99.99,meteohub,2013-07-04 15:04:00,
2013-07-04 11:09:00,82.9,74.7,30.14,SE,135,15.0,-999.0,76,-99.99,,,-99.99,meteohub,2013-07-04 15:09:00,
2013-07-04 11:12:00,82.0,75.6,30.16,SE,135,13.0,-999.0,81,-99.99,,,-99.99,meteohub,2013-07-04 15:12:00,
2013-07-04 11:17:00,80.1,72.5,30.16,SE,135,25.0,-999.0,78,-99.99,,,-99.99,meteohub,2013-07-04 15:17:00,
2013-07-04 11:22:00,77.0,72.9,30.16,SE,135,27.0,-999.0,87,-99.99,,,-99.99,meteohub,2013-07-04 15:22:00,
2013-07-04 11:27:00,75.9,73.0,30.16,SE,135,15.0,-999.0,91,-99.99,,,-99.99,meteohub,2013-07-04 15:27:00,
2013-07-04 11:32:00,75.0,72.5,30.16,SE,135,10.0,-999.0,92,-99.99,,,-99.99,meteohub,2013-07-04 15:32:00,
2013-07-04 11:37:00,75.0,72.9,30.16,SE,135,7.0,-999.0,93,-99.99,,,0.01,meteohub,2013-07-04 15:37:00,
2013-07-04 11:42:00,75.9,73.8,30.14,SE,135,10.0,-999.0,93,-99.99,,,-99.99,meteohub,2013-07-04 15:42:00,
2013-07-04 11:47:00,75.9,75.0,30.14,SE,135,12.0,-999.0,97,-99.99,,,-99.99,meteohub,2013-07-04 15:47:00,
2013-07-04 11:52:00,78.1,74.3,30.14,SE,135,12.0,-999.0,88,-99.99,,,-99.99,meteohub,2013-07-04 15:52:00,
2013-07-04 11:57:00,78.1,72.5,30.14,SE,135,10.0,-999.0,83,-99.99,,,-99.99,meteohub,2013-07-04 15:57:00,
2013-07-04 12:02:00,79.0,72.7,30.16,SE,135,10.0,-999.0,81,-99.99,,,-99.99,meteohub,2013-07-04 16:02:00,
2013-07-04 12:07:00,80.1,73.8,30.16,SE,135,9.0,-999.0,81,-99.99,,,-99.99,meteohub,2013-07-04 16:07:00,
2013-07-04 12:12:00,80.1,73.0,30.16,SE,135,10.0,-999.0,79,-99.99,,,-99.99,meteohub,2013-07-04 16:12:00,
2013-07-04 12:17:00,81.0,73.8,30.16,SE,135,8.0,-999.0,79,-99.99,,,-99.99,meteohub,2013-07-04 16:17:00,
2013-07-04 12:22:00,81.0,73.8,30.16,SE,135,10.0,-999.0,79,-99.99,,,-99.99,meteohub,2013-07-04 16:22:00,
2013-07-04 12:28:00,82.0,73.8,30.16,SE,135,10.0,-999.0,76,-99.99,,,-99.99,meteohub,2013-07-04 16:28:00,
2013-07-04 12:33:00,82.0,74.5,30.14,SE,135,15.0,-999.0,78,-99.99,,,-99.99,meteohub,2013-07-04 16:33:00,
2013-07-04 12:38:00,82.0,73.8,30.14,SE,135,13.0,-999.0,76,-99.99,,,0.01,meteohub,2013-07-04 16:38:00,
2013-07-04 12:43:00,82.0,75.6,30.14,SE,135,15.0,-999.0,81,-99.99,,,-99.99,meteohub,2013-07-04 16:43:00,
2013-07-04 12:48:00,82.9,73.8,30.14,SE,135,10.0,-999.0,74,-99.99,,,-99.99,meteohub,2013-07-04 16:48:00,
2013-07-04 12:53:00,82.9,73.8,30.14,SE,135,13.0,-999.0,74,-99.99,,,-99.99,meteohub,2013-07-04 16:53:00,
2013-07-04 12:58:00,82.9,73.0,30.14,SE,135,15.0,-999.0,72,-99.99,,,-99.99,meteohub,2013-07-04 16:58:00,
2013-07-04 13:03:00,82.9,73.0,30.14,SE,135,11.0,-999.0,72,-99.99,,,-99.99,meteohub,2013-07-04 17:03:00,
2013-07-04 13:08:00,82.9,73.0,30.14,SE,135,12.0,-999.0,72,-99.99,,,-99.99,meteohub,2013-07-04 17:08:00,
2013-07-04 13:13:00,84.0,73.2,30.14,SE,135,15.0,-999.0,70,-99.99,,,-99.99,meteohub,2013-07-04 17:13:00,
2013-07-04 13:18:00,84.0,74.5,30.14,SE,135,13.0,-999.0,73,-99.99,,,-99.99,meteohub,2013-07-04 17:18:00,
2013-07-04 13:24:00,84.0,73.2,30.14,SE,135,14.0,-999.0,70,-99.99,,,-99.99,meteohub,2013-07-04 17:24:00,
2013-07-04 13:29:00,84.0,73.2,30.14,SE,135,13.0,-999.0,70,-99.99,,,-99.99,meteohub,2013-07-04 17:29:00,
2013-07-04 13:34:00,82.9,72.5,30.14,SE,135,7.0,-999.0,71,-99.99,,,-99.99,meteohub,2013-07-04 17:34:00,
2013-07-04 13:39:00,82.9,73.8,30.14,SE,135,14.0,-999.0,74,-99.99,,,-99.99,meteohub,2013-07-04 17:39:00,
2013-07-04 13:44:00,84.0,73.9,30.14,SE,135,13.0,-999.0,72,-99.99,,,-99.99,meteohub,2013-07-04 17:44:00,
2013-07-04 13:49:00,84.0,73.6,30.14,SE,135,12.0,-999.0,71,-99.99,,,-99.99,meteohub,2013-07-04 17:49:00,
2013-07-04 13:54:00,84.0,73.2,30.14,SE,135,13.0,-999.0,70,-99.99,,,-99.99,meteohub,2013-07-04 17:54:00,
2013-07-04 13:59:00,84.0,75.2,30.14,SE,135,12.0,-999.0,75,-99.99,,,-99.99,meteohub,2013-07-04 17:59:00,
2013-07-04 14:04:00,84.0,73.2,30.14,SE,135,15.0,-999.0,70,-99.99,,,-99.99,meteohub,2013-07-04 18:04:00,
2013-07-04 14:09:00,84.0,73.2,30.13,SE,135,13.0,-999.0,70,-99.99,,,-99.99,meteohub,2013-07-04 18:09:00,
2013-07-04 14:15:00,84.0,73.9,30.13,SE,135,16.0,-999.0,72,-99.99,,,-99.99,meteohub,2013-07-04 18:15:00,
2013-07-04 14:20:00,84.0,74.5,30.13,SE,135,12.0,-999.0,73,-99.99,,,-99.99,meteohub,2013-07-04 18:20:00,
2013-07-04 14:25:00,84.0,72.7,30.13,SE,135,16.0,-999.0,69,-99.99,,,-99.99,meteohub,2013-07-04 18:25:00,
2013-07-04 14:30:00,84.0,74.5,30.13,SE,135,13.0,-999.0,73,-99.99,,,-99.99,meteohub,2013-07-04 18:30:00,
2013-07-04 14:35:00,82.9,74.1,30.13,SE,135,13.0,-999.0,75,-99.99,,,-99.99,meteohub,2013-07-04 18:35:00,
2013-07-04 14:40:00,82.9,72.5,30.13,SE,135,13.0,-999.0,71,-99.99,,,0.01,meteohub,2013-07-04 18:40:00,
2013-07-04 14:45:00,82.9,73.0,30.13,SE,135,11.0,-999.0,72,-99.99,,,-99.99,meteohub,2013-07-04 18:45:00,
2013-07-04 14:50:00,84.0,73.9,30.13,SE,135,10.0,-999.0,72,-99.99,,,-99.99,meteohub,2013-07-04 18:50:00,
2013-07-04 14:55:00,84.0,74.8,30.12,SE,135,10.0,-999.0,74,-99.99,,,-99.99,meteohub,2013-07-04 18:55:00,
2013-07-04 15:00:00,84.0,73.9,30.12,SE,135,12.0,-999.0,72,-99.99,,,-99.99,meteohub,2013-07-04 19:00:00,
2013-07-04 15:05:00,84.0,74.5,30.12,SE,135,9.0,-999.0,73,-99.99,,,-99.99,meteohub,2013-07-04 19:05:00,
2013-07-04 15:11:00,84.0,74.5,30.12,SE,135,13.0,-999.0,73,-99.99,,,-99.99,meteohub,2013-07-04 19:11:00,
2013-07-04 15:16:00,84.0,74.5,30.12,SE,135,14.0,-999.0,73,-99.99,,,0.01,meteohub,2013-07-04 19:16:00,
2013-07-04 15:21:00,84.0,73.9,30.12,SE,135,12.0,-999.0,72,-99.99,,,0.01,meteohub,2013-07-04 19:21:00,
2013-07-04 15:26:00,84.0,73.9,30.12,SE,135,10.0,-999.0,72,-99.99,,,-99.99,meteohub,2013-07-04 19:26:00,
2013-07-04 15:31:00,84.0,72.7,30.12,SE,135,11.0,-999.0,69,-99.99,,,-99.99,meteohub,2013-07-04 19:31:00,
2013-07-04 15:36:00,84.0,73.2,30.12,SE,135,10.0,-999.0,70,-99.99,,,-99.99,meteohub,2013-07-04 19:36:00,
2013-07-04 15:41:00,84.0,73.2,30.12,SE,135,15.0,-999.0,70,-99.99,,,-99.99,meteohub,2013-07-04 19:41:00,
2013-07-04 15:46:00,84.0,72.0,30.11,SE,135,15.0,-999.0,67,-99.99,,,0.01,meteohub,2013-07-04 19:46:00,
2013-07-04 15:51:00,84.9,74.8,30.09,SE,135,11.0,-999.0,72,-99.99,,,-99.99,meteohub,2013-07-04 19:51:00,
2013-07-04 15:56:00,84.9,72.7,30.09,SSE,157,10.0,-999.0,67,-99.99,,,-99.99,meteohub,2013-07-04 19:56:00,
2013-07-04 16:01:00,84.9,71.8,30.09,SE,135,10.0,-999.0,65,-99.99,,,-99.99,meteohub,2013-07-04 20:01:00,
2013-07-04 16:07:00,84.9,71.8,30.09,SE,135,15.0,-999.0,65,-99.99,,,-99.99,meteohub,2013-07-04 20:07:00,
2013-07-04 16:12:00,84.9,73.6,30.09,SE,135,13.0,-999.0,69,-99.99,,,-99.99,meteohub,2013-07-04 20:12:00,
2013-07-04 16:17:00,84.9,72.7,30.09,SE,135,13.0,-999.0,67,-99.99,,,-99.99,meteohub,2013-07-04 20:17:00,
2013-07-04 16:22:00,84.9,72.7,30.09,SE,135,13.0,-999.0,67,-99.99,,,-99.99,meteohub,2013-07-04 20:22:00,
2013-07-04 16:27:00,84.9,74.1,30.09,SE,135,11.0,-999.0,70,-99.99,,,-99.99,meteohub,2013-07-04 20:27:00,
2013-07-04 16:32:00,84.0,72.0,30.09,SE,135,14.0,-999.0,67,-99.99,,,-99.99,meteohub,2013-07-04 20:32:00,
2013-07-04 16:37:00,84.0,73.2,30.09,SE,135,16.0,-999.0,70,-99.99,,,0.01,meteohub,2013-07-04 20:37:00,
2013-07-04 16:42:00,84.0,72.7,30.09,SE,135,15.0,-999.0,69,-99.99,,,-99.99,meteohub,2013-07-04 20:42:00,
2013-07-04 16:47:00,84.9,74.8,30.09,SE,135,10.0,-999.0,72,-99.99,,,-99.99,meteohub,2013-07-04 20:47:00,
2013-07-04 16:52:00,84.0,73.2,30.09,SE,135,16.0,-999.0,70,-99.99,,,-99.99,meteohub,2013-07-04 20:52:00,
2013-07-04 16:57:00,84.0,73.9,30.09,SSE,157,9.0,-999.0,72,-99.99,,,-99.99,meteohub,2013-07-04 20:57:00,
2013-07-04 17:02:00,84.0,72.3,30.09,SE,135,12.0,-999.0,68,-99.99,,,-99.99,meteohub,2013-07-04 21:02:00,
2013-07-04 17:07:00,84.0,72.0,30.09,SE,135,13.0,-999.0,67,-99.99,,,-99.99,meteohub,2013-07-04 21:07:00,
2013-07-04 17:12:00,84.0,73.2,30.09,SE,135,19.0,-999.0,70,-99.99,,,0.01,meteohub,2013-07-04 21:12:00,
2013-07-04 17:17:00,84.0,73.2,30.09,SE,135,20.0,-999.0,70,-99.99,,,-99.99,meteohub,2013-07-04 21:17:00,
2013-07-04 17:22:00,82.9,73.0,30.09,SE,135,17.0,-999.0,72,-99.99,,,-99.99,meteohub,2013-07-04 21:22:00,
2013-07-04 17:27:00,82.9,72.5,30.09,SE,135,12.0,-999.0,71,-99.99,,,-99.99,meteohub,2013-07-04 21:27:00,
2013-07-04 17:32:00,82.9,72.1,30.09,SE,135,12.0,-999.0,70,-99.99,,,-99.99,meteohub,2013-07-04 21:32:00,
2013-07-04 17:37:00,82.9,72.5,30.09,SE,135,13.0,-999.0,71,-99.99,,,-99.99,meteohub,2013-07-04 21:37:00,
2013-07-04 17:42:00,82.9,72.1,30.09,SE,135,21.0,-999.0,70,-99.99,,,-99.99,meteohub,2013-07-04 21:42:00,
2013-07-04 17:47:00,82.0,69.6,30.09,SE,135,20.0,-999.0,66,-99.99,,,-99.99,meteohub,2013-07-04 21:47:00,
2013-07-04 17:52:00,81.0,72.0,30.09,SE,135,10.0,-999.0,74,-99.99,,,-99.99,meteohub,2013-07-04 21:52:00,
2013-07-04 17:57:00,82.0,70.9,30.09,SE,135,10.0,-999.0,69,-99.99,,,-99.99,meteohub,2013-07-04 21:57:00,
2013-07-04 18:02:00,82.0,70.3,30.09,SE,135,12.0,-999.0,68,-99.99,,,0.01,meteohub,2013-07-04 22:02:00,
2013-07-04 18:07:00,82.0,71.8,30.09,SE,135,8.0,-999.0,71,-99.99,,,0.01,meteohub,2013-07-04 22:07:00,
2013-07-04 18:12:00,82.0,71.8,30.09,SE,135,7.0,-999.0,71,-99.99,,,-99.99,meteohub,2013-07-04 22:12:00,
2013-07-04 18:18:00,82.0,70.9,30.09,SE,135,6.0,-999.0,69,-99.99,,,-99.99,meteohub,2013-07-04 22:18:00,
2013-07-04 18:23:00,82.0,71.8,30.09,SE,135,6.0,-999.0,71,-99.99,,,-99.99,meteohub,2013-07-04 22:23:00,
2013-07-04 18:28:00,82.0,72.5,30.09,SE,135,6.0,-999.0,73,-99.99,,,-99.99,meteohub,2013-07-04 22:28:00,
2013-07-04 18:33:00,82.0,72.9,30.11,SE,135,6.0,-999.0,74,-99.99,,,-99.99,meteohub,2013-07-04 22:33:00,
2013-07-04 18:38:00,82.0,73.4,30.11,SE,135,4.0,-999.0,75,-99.99,,,-99.99,meteohub,2013-07-04 22:38:00,
2013-07-04 18:43:00,82.0,72.9,30.11,SE,135,6.0,-999.0,74,-99.99,,,-99.99,meteohub,2013-07-04 22:43:00,
2013-07-04 18:48:00,81.0,72.0,30.11,SE,135,6.0,-999.0,74,-99.99,,,-99.99,meteohub,2013-07-04 22:48:00,
2013-07-04 18:53:00,82.0,73.8,30.11,SE,135,6.0,-999.0,76,-99.99,,,-99.99,meteohub,2013-07-04 22:53:00,
2013-07-04 18:58:00,81.0,72.3,30.09,SE,135,4.0,-999.0,75,-99.99,,,-99.99,meteohub,2013-07-04 22:58:00,
2013-07-04 19:03:00,82.0,73.8,30.11,SE,135,5.0,-999.0,76,-99.99,,,-99.99,meteohub,2013-07-04 23:03:00,
2013-07-04 19:08:00,82.0,74.5,30.11,SE,135,6.0,-999.0,78,-99.99,,,-99.99,meteohub,2013-07-04 23:08:00,
2013-07-04 19:14:00,82.0,74.8,30.11,SE,135,6.0,-999.0,79,-99.99,,,-99.99,meteohub,2013-07-04 23:14:00,
2013-07-04 19:19:00,82.0,74.1,30.12,NE,45,4.0,-999.0,77,-99.99,,,-99.99,meteohub,2013-07-04 23:19:00,
2013-07-04 19:24:00,82.0,74.5,30.12,SE,135,3.0,-999.0,78,-99.99,,,-99.99,meteohub,2013-07-04 23:24:00,
2013-07-04 19:29:00,82.0,74.8,30.12,NE,45,4.0,-999.0,79,-99.99,,,-99.99,meteohub,2013-07-04 23:29:00,
2013-07-04 19:34:00,82.0,72.9,30.12,NE,45,6.0,-999.0,74,-99.99,,,-99.99,meteohub,2013-07-04 23:34:00,
2013-07-04 19:39:00,82.0,72.5,30.12,SE,135,4.0,-999.0,73,-99.99,,,-99.99,meteohub,2013-07-04 23:39:00,
2013-07-04 19:44:00,82.0,72.1,30.12,SE,135,6.0,-999.0,72,-99.99,,,-99.99,meteohub,2013-07-04 23:44:00,
2013-07-04 19:49:00,82.0,72.5,30.12,SE,135,6.0,-999.0,73,-99.99,,,-99.99,meteohub,2013-07-04 23:49:00,
2013-07-04 19:54:00,82.0,72.5,30.12,SE,135,7.0,-999.0,73,-99.99,,,-99.99,meteohub,2013-07-04 23:54:00,
2013-07-04 19:59:00,82.0,71.8,30.12,SE,135,6.0,-999.0,71,-99.99,,,-99.99,meteohub,2013-07-04 23:59:00,
2013-07-04 20:05:00,82.0,71.8,30.12,NE,45,7.0,-999.0,71,-99.99,,,-99.99,meteohub,2013-07-05 00:05:00,
2013-07-04 20:10:00,82.0,71.2,30.12,NE,45,6.0,-999.0,70,-99.99,,,-99.99,meteohub,2013-07-05 00:10:00,
2013-07-04 20:15:00,82.0,71.8,30.12,NE,45,4.0,-999.0,71,-99.99,,,-99.99,meteohub,2013-07-05 00:15:00,
2013-07-04 20:20:00,82.0,71.8,30.12,NE,45,3.0,-999.0,71,-99.99,,,-99.99,meteohub,2013-07-05 00:20:00,
2013-07-04 20:25:00,82.0,72.5,30.13,NE,45,4.0,-999.0,73,-99.99,,,-99.99,meteohub,2013-07-05 00:25:00,
2013-07-04 20:30:00,82.0,71.2,30.13,NE,45,4.0,-999.0,70,-99.99,,,-99.99,meteohub,2013-07-05 00:30:00,
2013-07-04 20:35:00,81.0,70.7,30.13,NE,45,2.0,-999.0,71,-99.99,,,-99.99,meteohub,2013-07-05 00:35:00,
2013-07-04 20:40:00,81.0,70.7,30.13,NE,45,4.0,-999.0,71,-99.99,,,-99.99,meteohub,2013-07-05 00:40:00,
2013-07-04 20:45:00,81.0,72.0,30.14,NE,45,5.0,-999.0,74,-99.99,,,-99.99,meteohub,2013-07-05 00:45:00,
2013-07-04 20:50:00,81.0,71.4,30.14,NE,45,5.0,-999.0,73,-99.99,,,-99.99,meteohub,2013-07-05 00:50:00,
2013-07-04 20:55:00,81.0,71.4,30.14,NE,45,3.0,-999.0,73,-99.99,,,-99.99,meteohub,2013-07-05 00:55:00,
2013-07-04 21:01:00,81.0,72.3,30.14,NE,45,4.0,-999.0,75,-99.99,,,-99.99,meteohub,2013-07-05 01:01:00,
2013-07-04 21:06:00,81.0,72.7,30.14,NE,45,3.0,-999.0,76,-99.99,,,-99.99,meteohub,2013-07-05 01:06:00,
2013-07-04 21:11:00,80.1,72.1,30.14,NE,45,4.0,-999.0,77,-99.99,,,-99.99,meteohub,2013-07-05 01:11:00,
2013-07-04 21:16:00,80.1,72.1,30.14,NE,45,4.0,-999.0,77,-99.99,,,-99.99,meteohub,2013-07-05 01:16:00,
2013-07-04 21:21:00,80.1,73.4,30.14,NE,45,4.0,-999.0,80,-99.99,,,-99.99,meteohub,2013-07-05 01:21:00,
2013-07-04 21:26:00,80.1,71.8,30.14,NE,45,8.0,-999.0,76,-99.99,,,-99.99,meteohub,2013-07-05 01:26:00,
2013-07-04 21:31:00,80.1,71.8,30.14,NE,45,3.0,-999.0,76,-99.99,,,-99.99,meteohub,2013-07-05 01:31:00,
2013-07-04 21:36:00,80.1,72.5,30.14,NE,45,3.0,-999.0,78,-99.99,,,-99.99,meteohub,2013-07-05 01:36:00,
2013-07-04 21:41:00,80.1,73.8,30.14,NE,45,3.0,-999.0,81,-99.99,,,-99.99,meteohub,2013-07-05 01:41:00,
2013-07-04 21:43:00,80.1,73.0,30.14,NNE,22,4.0,-999.0,79,-99.99,,,-99.99,meteohub,2013-07-05 01:43:00,
2013-07-04 21:48:00,80.1,73.0,30.14,NE,45,6.0,-999.0,79,-99.99,,,-99.99,meteohub,2013-07-05 01:48:00,
2013-07-04 21:53:00,80.1,73.0,30.16,NE,45,5.0,-999.0,79,-99.99,,,-99.99,meteohub,2013-07-05 01:53:00,
2013-07-04 21:58:00,80.1,73.4,30.16,NE,45,5.0,-999.0,80,-99.99,,,-99.99,meteohub,2013-07-05 01:58:00,
2013-07-04 22:03:00,80.1,73.4,30.16,NE,45,3.0,-999.0,80,-99.99,,,-99.99,meteohub,2013-07-05 02:03:00,
2013-07-04 22:08:00,80.1,73.4,30.16,NE,45,4.0,-999.0,80,-99.99,,,-99.99,meteohub,2013-07-05 02:08:00,
2013-07-04 22:13:00,80.1,73.0,30.16,NE,45,6.0,-999.0,79,-99.99,,,-99.99,meteohub,2013-07-05 02:13:00,
2013-07-04 22:19:00,80.1,73.4,30.16,NE,45,3.0,-999.0,80,-99.99,,,-99.99,meteohub,2013-07-05 02:19:00,
2013-07-04 22:24:00,79.0,73.8,30.16,NE,45,6.0,-999.0,84,-99.99,,,-99.99,meteohub,2013-07-05 02:24:00,
2013-07-04 22:29:00,79.0,72.3,30.16,NE,45,8.0,-999.0,80,-99.99,,,-99.99,meteohub,2013-07-05 02:29:00,
2013-07-04 22:34:00,79.0,72.3,30.16,NE,45,6.0,-999.0,80,-99.99,,,-99.99,meteohub,2013-07-05 02:34:00,
2013-07-04 22:39:00,80.1,73.0,30.17,NE,45,11.0,-999.0,79,-99.99,,,-99.99,meteohub,2013-07-05 02:39:00,
2013-07-04 22:44:00,80.1,72.5,30.17,NE,45,8.0,-999.0,78,-99.99,,,-99.99,meteohub,2013-07-05 02:44:00,
2013-07-04 22:49:00,80.1,72.1,30.18,NE,45,10.0,-999.0,77,-99.99,,,-99.99,meteohub,2013-07-05 02:49:00,
2013-07-04 22:54:00,80.1,73.0,30.18,NE,45,7.0,-999.0,79,-99.99,,,-99.99,meteohub,2013-07-05 02:54:00,
2013-07-04 22:59:00,80.1,73.8,30.18,NE,45,10.0,-999.0,81,-99.99,,,-99.99,meteohub,2013-07-05 02:59:00,
2013-07-04 23:04:00,80.1,73.4,30.18,NE,45,7.0,-999.0,80,-99.99,,,-99.99,meteohub,2013-07-05 03:04:00,
2013-07-04 23:09:00,80.1,73.8,30.18,SE,135,4.0,-999.0,81,-99.99,,,-99.99,meteohub,2013-07-05 03:09:00,
2013-07-04 23:15:00,80.1,73.8,30.18,NE,45,11.0,-999.0,81,-99.99,,,-99.99,meteohub,2013-07-05 03:15:00,
2013-07-04 23:20:00,80.1,75.2,30.18,NE,45,15.0,-999.0,85,-99.99,,,-99.99,meteohub,2013-07-05 03:20:00,
2013-07-04 23:25:00,80.1,73.8,30.18,NE,45,12.0,-999.0,81,-99.99,,,-99.99,meteohub,2013-07-05 03:25:00,
2013-07-04 23:30:00,80.1,72.1,30.18,NE,45,20.0,-999.0,77,-99.99,,,-99.99,meteohub,2013-07-05 03:30:00,
2013-07-04 23:35:00,80.1,72.5,30.17,NE,45,20.0,-999.0,78,-99.99,,,-99.99,meteohub,2013-07-05 03:35:00,
2013-07-04 23:40:00,79.0,71.1,30.17,NE,45,10.0,-999.0,77,-99.99,,,-99.99,meteohub,2013-07-05 03:40:00,
2013-07-04 23:45:00,78.1,70.0,30.16,SE,135,14.0,-999.0,76,-99.99,,,-99.99,meteohub,2013-07-05 03:45:00,
2013-07-04 23:50:00,78.1,70.0,30.16,SE,135,17.0,-999.0,76,-99.99,,,-99.99,meteohub,2013-07-05 03:50:00,
2013-07-04 23:55:00,75.9,68.9,30.16,NE,45,7.0,-999.0,79,-99.99,,,-99.99,meteohub,2013-07-05 03:55:00,